Monument Pass, CO

5:06 AM MDT on June 29, 2017 (GMT -0600)
Monument Pass

Weather History for KMNH - June, 2014

Change the Weather History Date:

Tuesday, June 10, 2014

  Actual Average Record
Temperature  
Mean Temperature 62 °F -  
Max Temperature 73 °F - 89 °F (2013)
Min Temperature 50 °F - 39 °F (2008)
Degree Days  
Heating Degree Days 4    
Month to date heating degree days  
Cooling Degree Days 0    
Month to date cooling degree days  
Growing Degree Days 12 (Base 50)    
Moisture  
Dew Point 35 °F    
Average Humidity 37    
Maximum Humidity 67    
Minimum Humidity 18    
Precipitation  
Precipitation 0.01 in - 0.88 in (2003)
Sea Level Pressure  
Sea Level Pressure 30.07 in    
Wind  
Wind Speed 8 mph (WSW)    
Max Wind Speed 21 mph    
Max Gust Speed 38 mph    
Visibility 10 miles    
Events Rain , Thunderstorm    
T = Trace of Precipitation, MM = Missing Value Source: NWS Daily Summary

Daily Weather History Graph

Daily Weather History Graph

Search for Another Location

Airport or City:

Trip Planner

Search our weather history database for the weather conditions in past years. The results will help you decide how hot, cold, wet, or windy it might be!

Date:

Astronomy

Jun. 10, 2014 Rise Set
Actual Time 5:31 AM MDT 8:24 PM MDT
Civil Twilight 4:59 AM MDT 8:56 PM MDT
Nautical Twilight 4:19 AM MDT 9:37 PM MDT
Astronomical Twilight 3:32 AM MDT 10:23 PM MDT
Moon 5:53 PM MDT (6/10) 3:38 AM MDT (6/10)
Length of Visible Light 15h 56m
Length of Day
14h 52m
Waxing Gibbous, 92% of the Moon is Illuminated
Jun 10
Waxing Gibbous
Jun 12
Full
Jun 19
Last Quarter
Jun 27
New
Jul 5
First Quarter

Hourly Weather History & Observations

Time (MDT) Temp. Dew Point Humidity Pressure Visibility Wind Dir Wind Speed Gust Speed Precip Events Conditions
7:52 AM 71.6 °F 41.0 °F 33% 30.02 in 3.0 mi Calm Calm - N/A   Haze
10:33 AM 71.6 °F 28.4 °F 20% 30.10 in 10.0 mi NNW 10.4 mph 19.6 mph N/A   Clear
11:13 AM 71.6 °F 26.6 °F 19% 30.10 in 10.0 mi NW 9.2 mph - N/A   Clear
11:33 AM 71.6 °F 30.2 °F 22% 30.10 in 10.0 mi NW 11.5 mph - N/A   Clear
11:54 AM 71.6 °F 28.4 °F 20% 30.10 in 10.0 mi North 13.8 mph 17.3 mph N/A   Clear
12:13 PM 73.4 °F 28.4 °F 19% 30.09 in 10.0 mi North 8.1 mph - N/A   Clear
12:33 PM 71.6 °F 26.6 °F 19% 30.09 in 10.0 mi NW 12.7 mph 17.3 mph N/A   Clear
1:14 PM 73.4 °F 28.4 °F 19% 30.08 in 10.0 mi NNW 8.1 mph - N/A   Clear
1:34 PM 73.4 °F 28.4 °F 19% 30.08 in 10.0 mi North 9.2 mph 18.4 mph N/A   Clear
1:54 PM 73.4 °F 28.4 °F 19% 30.07 in 10.0 mi North 8.1 mph - N/A   Clear
2:14 PM 73.4 °F 28.4 °F 19% 30.07 in 10.0 mi NW 8.1 mph - N/A   Clear
2:34 PM 73.4 °F 26.6 °F 18% 30.06 in 10.0 mi NW 6.9 mph - N/A   Clear
3:14 PM 71.6 °F 28.4 °F 20% 30.07 in 10.0 mi NW 8.1 mph 16.1 mph N/A   Scattered Clouds
3:34 PM 71.6 °F 30.2 °F 22% 30.08 in 10.0 mi WSW 19.6 mph 27.6 mph N/A   Mostly Cloudy
3:53 PM 71.6 °F 33.8 °F 25% 30.07 in 10.0 mi SSW 18.4 mph 28.8 mph N/A   Scattered Clouds
4:14 PM 71.6 °F 32.0 °F 23% 30.05 in 10.0 mi SW 5.8 mph - N/A   Clear
4:34 PM 69.8 °F 32.0 °F 25% 30.04 in 10.0 mi South 5.8 mph - N/A   Clear
4:54 PM 68.0 °F 35.6 °F 30% 30.05 in 10.0 mi South 5.8 mph - N/A Thunderstorm Thunderstorm
5:14 PM 62.6 °F 35.6 °F 37% 30.05 in 7.0 mi South 6.9 mph 38.0 mph 0.01 in Rain , Thunderstorm Light Thunderstorms and Rain
5:34 PM 60.8 °F 41.0 °F 48% 30.05 in 10.0 mi WNW 4.6 mph - 0.01 in   Scattered Clouds
5:54 PM 64.4 °F 35.6 °F 34% 30.04 in 10.0 mi West 4.6 mph - 0.01 in   Mostly Cloudy
6:14 PM 64.4 °F 32.0 °F 30% 30.06 in 10.0 mi WNW 20.7 mph 29.9 mph N/A   Overcast
6:34 PM 62.6 °F 39.2 °F 42% 30.07 in 10.0 mi WNW 10.4 mph - N/A   Mostly Cloudy
6:54 PM 60.8 °F 41.0 °F 48% 30.06 in 10.0 mi WNW 3.5 mph - N/A   Scattered Clouds
7:14 PM 62.6 °F 41.0 °F 45% 30.06 in 10.0 mi SSW 3.5 mph - N/A   Clear
7:34 PM 60.8 °F 44.6 °F 55% 30.06 in 10.0 mi South 6.9 mph - N/A   Clear
7:54 PM 59.0 °F 42.8 °F 55% 30.05 in 10.0 mi SSW 4.6 mph - N/A   Clear
8:14 PM 59.0 °F 41.0 °F 51% 30.05 in 10.0 mi SSW 5.8 mph - N/A   Clear
8:34 PM 57.2 °F 41.0 °F 55% 30.05 in 10.0 mi SSW 5.8 mph - N/A   Clear
9:14 PM 55.4 °F 41.0 °F 58% 30.07 in 10.0 mi South 5.8 mph - N/A   Clear
9:34 PM 51.8 °F 41.0 °F 67% 30.07 in 10.0 mi South 6.9 mph - N/A   Clear
9:53 PM 51.8 °F 41.0 °F 67% 30.07 in 10.0 mi South 6.9 mph - N/A   Clear
10:14 PM 51.8 °F 39.2 °F 62% 30.08 in 10.0 mi South 11.5 mph - N/A   Clear
10:34 PM 50.0 °F 39.2 °F 66% 30.07 in 10.0 mi South 9.2 mph - N/A   Clear
10:54 PM 53.6 °F 37.4 °F 54% 30.07 in 10.0 mi SSW 9.2 mph - N/A   Clear
11:14 PM 53.6 °F 37.4 °F 54% 30.06 in 10.0 mi SSW 9.2 mph - N/A   Clear
11:34 PM 55.4 °F 37.4 °F 51% 30.06 in 10.0 mi SSW 5.8 mph - N/A   Clear
11:53 PM 53.6 °F 37.4 °F 54% 30.05 in 10.0 mi SSW 9.2 mph - N/A   Clear